| time (UTC) | temp C | wind direction | speed KPH | gust KPH | rain 1hr cm | rain 24hr cm | rain mn cm | humidity % | barometer mb |
| 20260506034541 | -2 | 147 | 0.0 | 3.2 | 0.00 | 0.00 | 0.00 | 87 | 1012.2 |
| 20260506033040 | -2 | 132 | 0.0 | 1.6 | 0.00 | 0.00 | 0.00 | 87 | 1012.1 |
| 20260506031544 | -2 | 130 | 3.2 | 6.4 | 0.00 | 0.00 | 0.00 | 87 | 1012.0 |
| 20260506030040 | -3 | 182 | 3.2 | 9.7 | 0.00 | 0.00 | 0.00 | 84 | 1011.9 |
| 20260506024542 | -2 | 80 | 0.0 | 0.0 | 0.00 | 0.00 | 0.00 | 82 | 1011.8 |
| 20260506023053 | -2 | 80 | 0.0 | 1.6 | 0.00 | 0.00 | 0.00 | 82 | 1011.9 |
| 20260506021606 | -2 | 80 | 0.0 | 0.0 | 0.00 | 0.00 | 0.00 | 82 | 1011.8 |
| 20260506020136 | -1 | 80 | 0.0 | 3.2 | 0.00 | 0.00 | 0.00 | 83 | 1011.8 |
| 20260506014537 | -2 | 94 | 0.0 | 0.0 | 0.00 | 0.00 | 0.00 | 82 | 1011.7 |
| 20260506013039 | -1 | 102 | 0.0 | 3.2 | 0.00 | 0.00 | 0.00 | 81 | 1011.7 |
| 20260506011543 | -1 | 96 | 0.0 | 0.0 | 0.00 | 0.00 | 0.00 | 81 | 1011.6 |
| 20260506010137 | -1 | 96 | 0.0 | 0.0 | 0.00 | 0.00 | 0.00 | 80 | 1011.5 |
| 20260506004638 | -1 | 96 | 0.0 | 0.0 | 0.00 | 0.00 | 0.00 | 79 | 1011.4 |
| 20260506003038 | -1 | 88 | 0.0 | 0.0 | 0.00 | 0.00 | 0.00 | 78 | 1011.5 |
| 20260506001541 | 0 | 87 | 0.0 | 0.0 | 0.00 | 0.00 | 0.00 | 72 | 1011.5 |
| 20260506000042 | 0 | 87 | 0.0 | 0.0 | 0.00 | 0.00 | 0.00 | 72 | 1011.4 |
| 20260505234542 | 0 | 87 | 0.0 | 8.0 | 0.00 | 0.00 | 0.00 | 71 | 1011.4 |
| 20260505233038 | 0 | 97 | 3.2 | 4.8 | 0.00 | 0.00 | 0.00 | 72 | 1011.4 |
| 20260505231554 | 0 | 94 | 0.0 | 4.8 | 0.00 | 0.00 | 0.00 | 69 | 1011.4 |
| 20260505230136 | 0 | 93 | 3.2 | 8.0 | 0.00 | 0.00 | 0.00 | 69 | 1011.4 |
| 20260505224539 | 1 | 99 | 0.0 | 3.2 | 0.00 | 0.00 | 0.00 | 69 | 1011.4 |
| 20260505223036 | 1 | 94 | 0.0 | 3.2 | 0.00 | 0.00 | 0.00 | 67 | 1011.4 |
| 20260505221537 | 1 | 94 | 1.6 | 3.2 | 0.00 | 0.00 | 0.00 | 67 | 1011.3 |
| 20260505220038 | 1 | 71 | 0.0 | 1.6 | 0.00 | 0.00 | 0.00 | 68 | 1011.2 |
| 20260505214642 | 1 | 71 | 0.0 | 0.0 | 0.00 | 0.00 | 0.00 | 67 | 1011.2 |
| 20260505213137 | 2 | 71 | 0.0 | 0.0 | 0.00 | 0.00 | 0.00 | 68 | 1011.2 |
| 20260505211537 | 2 | 71 | 0.0 | 1.6 | 0.00 | 0.00 | 0.00 | 67 | 1011.0 |
| 20260505210040 | 2 | 74 | 0.0 | 3.2 | 0.00 | 0.00 | 0.00 | 66 | 1010.9 |
| 20260505204539 | 3 | 74 | 0.0 | 0.0 | 0.00 | 0.00 | 0.00 | 62 | 1010.8 |
| 20260505203136 | 3 | 74 | 0.0 | 0.0 | 0.00 | 0.00 | 0.00 | 61 | 1010.7 |
| 20260505201542 | 3 | 74 | 0.0 | 1.6 | 0.00 | 0.00 | 0.00 | 57 | 1010.6 |
| 20260505200136 | 4 | 74 | 1.6 | 4.8 | 0.00 | 0.00 | 0.00 | 54 | 1010.5 |
| 20260505194540 | 5 | 82 | 1.6 | 3.2 | 0.00 | 0.00 | 0.00 | 51 | 1010.4 |
| 20260505193041 | 6 | 82 | 1.6 | 3.2 | 0.00 | 0.00 | 0.00 | 49 | 1010.2 |
| 20260505191537 | 6 | 238 | 0.0 | 3.2 | 0.00 | 0.00 | 0.00 | 44 | 1010.0 |
| 20260505190038 | 6 | 238 | 3.2 | 4.8 | 0.00 | 0.00 | 0.00 | 42 | 1009.9 |
| 20260505184540 | 7 | 247 | 3.2 | 4.8 | 0.00 | 0.00 | 0.00 | 40 | 1009.8 |
| 20260505183039 | 7 | 248 | 4.8 | 9.7 | 0.00 | 0.00 | 0.00 | 39 | 1009.7 |
| 20260505181546 | 8 | 272 | 6.4 | 12.9 | 0.00 | 0.00 | 0.00 | 38 | 1009.6 |
| 20260505180138 | 8 | 242 | 6.4 | 16.1 | 0.00 | 0.00 | 0.00 | 37 | 1009.4 |
| 20260505174543 | 8 | 262 | 14.5 | 17.7 | 0.00 | 0.00 | 0.00 | 35 | 1009.2 |
| 20260505173137 | 8 | 265 | 14.5 | 19.3 | 0.00 | 0.00 | 0.00 | 34 | 1009.2 |
| 20260505171540 | 9 | 269 | 12.9 | 17.7 | 0.00 | 0.00 | 0.00 | 33 | 1009.2 |
| 20260505170100 | 9 | 269 | 12.9 | 22.5 | 0.00 | 0.00 | 0.00 | 33 | 1009.1 |
| 20260505164543 | 9 | 271 | 16.1 | 24.1 | 0.00 | 0.00 | 0.00 | 33 | 1009.2 |
| 20260505163041 | 9 | 271 | 17.7 | 25.7 | 0.00 | 0.00 | 0.00 | 32 | 1009.2 |
| 20260505161538 | 9 | 249 | 14.5 | 29.0 | 0.00 | 0.00 | 0.00 | 35 | 1009.2 |
| 20260505160136 | 9 | 274 | 14.5 | 29.0 | 0.00 | 0.00 | 0.00 | 35 | 1009.1 |
| 20260505153041 | 10 | 284 | 17.7 | 25.7 | 0.00 | 0.00 | 0.00 | 36 | 1009.0 |
| 20260505151554 | 10 | 272 | 17.7 | 29.0 | 0.00 | 0.00 | 0.00 | 37 | 1009.1 |
| 20260505150138 | 10 | 292 | 16.1 | 29.0 | 0.00 | 0.00 | 0.00 | 36 | 1009.0 |
| 20260505140136 | 10 | 314 | 12.9 | 30.6 | 0.00 | 0.00 | 0.00 | 38 | 1008.9 |
| 20260505124542 | 9 | 313 | 14.5 | 30.6 | 0.00 | 0.00 | 0.00 | 39 | 1009.3 |
| 20260505123039 | 8 | 277 | 14.5 | 33.8 | 0.00 | 0.00 | 0.00 | 40 | 1009.3 |
| 20260505121551 | 8 | 294 | 20.9 | 29.0 | 0.00 | 0.00 | 0.00 | 36 | 1009.3 |
| 20260505120136 | 8 | 308 | 20.9 | 30.6 | 0.00 | 0.00 | 0.00 | 39 | 1009.4 |
| 20260505114540 | 8 | 267 | 20.9 | 35.4 | 0.00 | 0.00 | 0.00 | 40 | 1009.5 |
| 20260505113041 | 8 | 303 | 22.5 | 33.8 | 0.00 | 0.00 | 0.00 | 39 | 1009.4 |
| 20260505111544 | 7 | 300 | 19.3 | 30.6 | 0.00 | 0.00 | 0.00 | 41 | 1009.3 |
| 20260505101551 | 7 | 251 | 22.5 | 29.0 | 0.00 | 0.00 | 0.00 | 45 | 1009.1 |
| 20260505100136 | 7 | 261 | 19.3 | 27.4 | 0.00 | 0.00 | 0.00 | 46 | 1009.0 |
| 20260505094542 | 7 | 321 | 16.1 | 27.4 | 0.00 | 0.00 | 0.00 | 45 | 1008.9 |
| 20260505093041 | 7 | 278 | 17.7 | 32.2 | 0.00 | 0.00 | 0.00 | 49 | 1008.8 |
| 20260505091541 | 7 | 279 | 14.5 | 24.1 | 0.00 | 0.00 | 0.00 | 52 | 1008.7 |
| 20260505090137 | 7 | 288 | 12.9 | 24.1 | 0.00 | 0.00 | 0.00 | 50 | 1008.7 |
| 20260505084636 | 6 | 277 | 19.3 | 27.4 | 0.00 | 0.00 | 0.00 | 52 | 1008.6 |
| 20260505083136 | 6 | 266 | 19.3 | 27.4 | 0.00 | 0.00 | 0.00 | 50 | 1008.6 |
| 20260505081542 | 6 | 265 | 16.1 | 24.1 | 0.00 | 0.00 | 0.00 | 52 | 1008.5 |
| 20260505080135 | 6 | 281 | 11.3 | 20.9 | 0.00 | 0.00 | 0.00 | 56 | 1008.3 |
| 20260505074543 | 6 | 333 | 11.3 | 20.9 | 0.00 | 0.00 | 0.00 | 57 | 1008.3 |
| 20260505073039 | 6 | 290 | 14.5 | 22.5 | 0.00 | 0.00 | 0.00 | 59 | 1008.2 |
| 20260505071537 | 6 | 321 | 12.9 | 20.9 | 0.00 | 0.00 | 0.00 | 59 | 1008.1 |
| 20260505070042 | 6 | 327 | 11.3 | 22.5 | 0.00 | 0.00 | 0.00 | 60 | 1008.0 |
| 20260505064537 | 5 | 290 | 16.1 | 24.1 | 0.00 | 0.00 | 0.00 | 60 | 1007.9 |
| 20260505063039 | 5 | 294 | 16.1 | 24.1 | 0.00 | 0.00 | 0.00 | 62 | 1007.7 |
| 20260505061545 | 5 | 297 | 16.1 | 22.5 | 0.00 | 0.00 | 0.00 | 64 | 1007.8 |
| 20260505060039 | 5 | 301 | 17.7 | 24.1 | 0.00 | 0.00 | 0.00 | 66 | 1007.6 |
| 20260505054540 | 5 | 282 | 14.5 | 22.5 | 0.00 | 0.00 | 0.00 | 66 | 1007.5 |
| 20260505053043 | 5 | 276 | 14.5 | 22.5 | 0.00 | 0.00 | 0.00 | 67 | 1007.4 |
| 20260505051536 | 5 | 294 | 9.7 | 17.7 | 0.00 | 0.00 | 0.00 | 69 | 1007.1 |
| 20260505041538 | 3 | 271 | 6.4 | 16.1 | 0.00 | 0.03 | 0.00 | 76 | 1006.7 |
| 20260505040136 | 3 | 272 | 4.8 | 8.0 | 0.00 | 0.03 | 0.00 | 77 | 1006.5 |